GW0409 Weather Reports


time (UTC)temp
F
wind
direction
speed
knots
gust
knots
rain 1hr
in
rain 24hr
in
rain mn
in
humidity
%
barometer
mb
20260502232020 69 242 2.6 7.0 0.00 0.00 0.00 26 1016.5
20260502231017 69 286 2.6 6.1 0.00 0.00 0.00 27 1016.6
20260502230022 69 250 2.6 6.1 0.00 0.00 0.00 27 1016.7
20260502225040 69 253 4.3 9.6 0.00 0.00 0.00 27 1016.7
20260502224021 67 274 1.7 5.2 0.00 0.00 0.00 27 1017.0
20260502222038 68 230 2.6 6.1 0.00 0.00 0.00 26 1017.1
20260502221100 68 246 3.5 7.8 0.00 0.00 0.00 25 1017.1
20260502220021 69 323 2.6 7.0 0.00 0.00 0.00 25 1017.2
20260502215040 69 252 4.3 7.8 0.00 0.00 0.00 26 1017.3
20260502214018 68 263 2.6 6.1 0.00 0.00 0.00 28 1017.4
20260502213019 67 293 2.6 7.8 0.00 0.00 0.00 30 1017.6
20260502212018 67 262 2.6 7.0 0.00 0.00 0.00 30 1017.8
20260502211018 66 279 3.5 8.7 0.00 0.00 0.00 31 1017.9
20260502210039 67 276 4.3 8.7 0.00 0.00 0.00 30 1017.9
20260502205019 66 264 3.5 13.0 0.00 0.00 0.00 31 1018.1
20260502204019 66 287 3.5 7.8 0.00 0.00 0.00 32 1018.3
20260502203019 65 267 3.5 7.0 0.00 0.00 0.00 33 1018.4
20260502202017 65 243 3.5 7.0 0.00 0.00 0.00 36 1018.5
20260502201018 65 273 3.5 8.7 0.00 0.00 0.00 37 1018.7
20260502200042 64 251 1.7 3.5 0.00 0.00 0.00 40 1018.7
20260502195021 64 257 3.5 7.8 0.00 0.00 0.00 40 1018.9
20260502194017 64 326 2.6 6.1 0.00 0.00 0.00 41 1019.0
20260502193019 63 255 2.6 6.1 0.00 0.00 0.00 42 1019.2
20260502192017 62 216 1.7 4.3 0.00 0.00 0.00 45 1019.3
20260502191018 61 233 2.6 5.2 0.00 0.00 0.00 46 1019.4
20260502190021 61 244 2.6 6.1 0.00 0.00 0.00 46 1019.5
20260502185019 60 191 1.7 5.2 0.00 0.00 0.00 47 1019.7
20260502184040 60 238 2.6 5.2 0.00 0.00 0.00 48 1019.8
20260502182021 58 260 1.7 5.2 0.00 0.00 0.00 51 1020.2
20260502181039 57 277 1.7 6.1 0.00 0.00 0.00 52 1020.2
20260502164018 50 246 1.7 3.5 0.00 0.00 0.00 63 1020.7
20260502163018 50 300 1.7 2.6 0.00 0.00 0.00 65 1020.7
20260502162018 49 307 0.9 2.6 0.00 0.00 0.00 67 1020.7
20260502161018 48 280 0.9 2.6 0.00 0.00 0.00 70 1020.8
20260502152018 42 324 0.0 1.7 0.00 0.00 0.00 81 1021.1
20260502151019 42 244 0.0 0.9 0.00 0.00 0.00 82 1021.3
20260502123018 37 326 1.7 3.5 0.00 0.00 0.00 90 1020.5
20260502122040 37 344 1.7 2.6 0.00 0.00 0.00 91 1020.4
20260502121020 38 309 0.9 2.6 0.00 0.00 0.00 90 1020.4
20260502115041 38 312 0.9 2.6 0.00 0.00 0.00 87 1020.3
20260502114021 38 344 0.9 1.7 0.00 0.00 0.00 87 1020.3
20260502113021 39 346 0.9 1.7 0.00 0.00 0.00 86 1020.3
20260502112017 39 15 1.7 3.5 0.00 0.00 0.00 87 1020.2
20260502111038 39 332 1.7 2.6 0.00 0.00 0.00 86 1020.1
20260502110021 40 319 1.7 2.6 0.00 0.00 0.00 84 1020.1
20260502105020 40 316 0.9 1.7 0.00 0.00 0.00 82 1020.1
20260502104017 41 310 0.9 1.7 0.00 0.00 0.00 81 1020.0
20260502103019 42 231 0.0 0.9 0.00 0.00 0.00 79 1019.9
20260502102017 42 0.0 0.0 0.00 0.00 0.00 78 1019.9
20260502101020 42 351 0.0 2.6 0.00 0.00 0.00 77 1019.9
20260502091017 46 313 0.9 2.6 0.00 0.00 0.00 66 1019.5
20260502071018 51 340 2.6 3.5 0.00 0.00 0.00 56 1018.8
20260502070020 52 336 0.9 1.7 0.00 0.00 0.00 54 1018.8
20260502065018 53 0.0 0.0 0.00 0.00 0.00 51 1018.8
20260502064038 53 0.0 0.0 0.00 0.00 0.00 51 1018.8
20260502063019 54 192 0.0 1.7 0.00 0.00 0.00 49 1018.8
20260502062019 55 0 2.6 3.5 0.00 0.00 0.00 48 1018.7
20260502061019 55 11 0.0 1.7 0.00 0.00 0.00 48 1018.7
20260502060019 55 1 0.9 2.6 0.00 0.00 0.00 47 1018.7
20260502055019 54 358 0.0 1.7 0.00 0.00 0.00 48 1018.7
20260502054019 55 343 1.7 2.6 0.00 0.00 0.00 49 1018.6
20260502053020 55 332 1.7 2.6 0.00 0.00 0.00 46 1018.6
20260502052017 54 0.0 0.0 0.00 0.00 0.00 49 1018.6
20260502051022 55 343 1.7 2.6 0.00 0.00 0.00 48 1018.5
20260502050021 56 357 0.9 2.6 0.00 0.00 0.00 46 1018.4
20260502045020 56 0.0 0.0 0.00 0.00 0.00 45 1018.3
20260502044017 55 353 0.0 1.7 0.00 0.00 0.00 47 1018.3
20260502043017 56 356 0.9 2.6 0.00 0.00 0.00 47 1018.2
20260502042017 57 1 0.0 1.7 0.00 0.00 0.00 43 1018.1
20260502041021 57 0.0 0.0 0.00 0.00 0.00 44 1018.1
20260502040018 57 6 0.0 1.7 0.00 0.00 0.00 44 1017.9
20260502035019 57 343 0.0 2.6 0.00 0.00 0.00 42 1017.8
20260502034018 58 0.0 0.0 0.00 0.00 0.00 40 1017.7
20260502033019 59 2 1.7 2.6 0.00 0.00 0.00 39 1017.6
20260502032021 60 8 0.9 1.7 0.00 0.00 0.00 36 1017.5
20260502031039 61 355 1.7 2.6 0.00 0.00 0.00 35 1017.4
20260502030019 62 350 0.9 2.6 0.00 0.00 0.00 35 1017.3
20260502025021 63 0 0.9 1.7 0.00 0.00 0.00 34 1017.2
20260502024019 63 2 1.7 3.5 0.00 0.00 0.00 33 1017.1
20260502023037 63 285 1.7 5.2 0.00 0.00 0.00 33 1017.1
20260502022041 64 16 1.7 4.3 0.00 0.00 0.00 33 1017.0
20260502021020 65 314 0.9 5.2 0.00 0.00 0.00 32 1017.0
20260502020018 65 209 0.0 2.6 0.00 0.00 0.00 32 1016.9
20260502015018 64 82 1.7 5.2 0.00 0.00 0.00 34 1016.9
20260502014017 65 31 0.9 5.2 0.00 0.00 0.00 33 1017.0
20260502013022 64 30 1.7 5.2 0.00 0.00 0.00 34 1017.1
20260502012038 64 13 0.9 4.3 0.00 0.00 0.00 34 1017.1
20260502011020 64 334 2.6 6.1 0.00 0.00 0.00 34 1017.1
20260502010040 65 13 1.7 5.2 0.00 0.00 0.00 34 1017.1
20260502005018 65 62 1.7 5.2 0.00 0.00 0.00 33 1017.2
20260502004018 65 296 1.7 3.5 0.00 0.00 0.00 31 1017.2
20260502003041 65 191 1.7 7.0 0.00 0.00 0.00 34 1017.1
20260502002020 65 247 1.7 5.2 0.00 0.00 0.00 33 1017.2
20260502001019 64 262 1.7 4.3 0.00 0.00 0.00 34 1017.3
20260502000039 65 235 0.9 2.6 0.00 0.00 0.00 34 1017.3
20260501235019 64 242 1.7 5.2 0.00 0.00 0.00 34 1017.4
20260501234016 63 245 2.6 6.1 0.00 0.00 0.00 34 1017.4
20260501233041 61 265 1.7 5.2 0.00 0.00 0.00 37 1017.6